Location: Newark
(52.2583°N, 7.1190°W)
Time: 05:01:37
(UTC+00:00)

Vanguard 2 Rocket - Pass Details

Date: 20 November 2019
Orbit: 554 x 3326 km, 32.9° (Epoch: 14 December)

Event Time Altitude Azimuth Distance (km) Brightness Sun altitude
Rises 03:50:52 0° 229° (SW) 3,067 - -37.0°
Reaches altitude 10° 03:54:49 10° 195° (SSW) 2,508 - -36.5°
Maximum altitude 03:56:42 12° 176° (S) 2,594 - -36.2°
Exits shadow 03:58:31 10° 160° (SSE) 2,876 9.5 -35.9°
Drops below altitude 10° 03:58:50 10° 158° (SSE) 2,941 9.5 -35.9°
Sets 04:04:51 0° 130° (SE) 4,612 10.9 -35.0°
